Location: Colonie
(42.7179°N, 73.8335°W)
Time: 08:23:29
(UTC+00:00)

Meteor 2-10 Rocket - Pass Details

Date: 29 October 2020
Orbit: 734 x 885 km, 81.2° (Epoch: 02 December)

Event Time Altitude Azimuth Distance (km) Brightness Sun altitude
Rises 22:50:17 0° 174° (S) 3,305 6.8 -11.4°
Reaches altitude 10° 22:52:45 10° 169° (S) 2,355 6.0 -11.8°
Maximum altitude 22:57:50 50° 95° (E) 977 3.7 -12.8°
Drops below altitude 10° 23:02:47 10° 21° (NNE) 2,287 5.7 -13.7°
Sets 23:05:09 0° 16° (NNE) 3,201 6.5 -14.1°
